Погода в Гуаймасе

Мексика     27°55′13″N   110°54′10″W
темп.,
°C
ветер,
м/с
пор.,
м/с
влажн.,
%
обл.,
%
осадки,
мм/ч
давл.,
гПа
погр.,
м
29 июня, ср
ср2923:00+32св8105169 0.9 1013492
02:00+30ююв235297 0.1 1012174
05:00+30в225859 0.1 1012175
08:00+31юв11535 0.0 1014343
11:00+34ю32435 0.0 1014954
14:00+34ююз64435 0.0 10131019
17:00+32юз55520 0.1 1011507
20:00+31ююв44594 0.3 1013295
30 июня, чт
чт3023:00+30юв9105995 0.6 1016802
02:00+28всв3758100 0.6 1014366
05:00+28ю2358100 0.6 1014319
08:00+29ююв236258 0.0 1015626
11:00+31ю435584 0.0 1014833
14:00+32ююз435239 0.0 1012810
17:00+31юз43520 0.0 1010524
20:00+30ююз32600 0.0 1010264
1 июля, пт
пт123:00+29ююз33695 0.0 1012243
02:00+29вюв35627 0.2 1012312
05:00+28вюв356872 0.2 1012480
08:00+29юв456673 0.0 1013767
11:00+31ююв445612 0.0 1012916
14:00+32ю535428 0.0 1011988
17:00+31ю435760 0.0 1008616
20:00+30ю226249 0.0 1009306
2 июля, сб
сб223:00+30с236050 0.3 1010366
02:00+29в346429 0.2 1009311
05:00+28в22665 0.3 1009215
08:00+29в22635 0.3 1011526
11:00+32ююв32515 0.3 1010936
14:00+33ююз64512 0.0 10091060
17:00+31ююз54572 0.0 1007488
20:00+30юз22601 0.1 1007221
3 июля, вс
вс323:00+30ююв22610 0.3 1009240
02:00+29в456212 0.1 1009386
05:00+28в34620 1.1 1009301
08:00+29юв346013 0.2 1010575
11:00+32ю44503 0.3 1010875
14:00+32ю54490 0.0 1009848
17:00+32ю33530 0.0 1007532
20:00+30ю33560 0.0 1008287